| time (UTC) | temp C | wind direction | speed KPH | gust KPH | rain 1hr cm | rain 24hr cm | rain mn cm | humidity % | barometer mb |
| 20260504050404 | 4 | 248 | 0.0 | 0.0 | 0.00 | 0.00 | 0.00 | 85 | 987.5 |
| 20260504045905 | 4 | 248 | 0.0 | 0.0 | 0.00 | 0.00 | 0.00 | 85 | 987.5 |
| 20260504045404 | 4 | 248 | 0.0 | 0.0 | 0.00 | 0.00 | 0.00 | 85 | 987.5 |
| 20260504044905 | 4 | 248 | 0.0 | 0.0 | 0.00 | 0.00 | 0.00 | 85 | 987.5 |
| 20260504044405 | 4 | 248 | 0.0 | 0.0 | 0.00 | 0.00 | 0.00 | 85 | 987.5 |
| 20260504043904 | 4 | 248 | 0.0 | 0.0 | 0.00 | 0.00 | 0.00 | 85 | 987.4 |
| 20260504042405 | 4 | 248 | 0.0 | 0.0 | 0.00 | 0.00 | 0.00 | 85 | 987.3 |
| 20260504041904 | 4 | 248 | 0.0 | 0.0 | 0.00 | 0.00 | 0.00 | 85 | 987.3 |
| 20260504041405 | 4 | 256 | 0.0 | 0.0 | 0.00 | 0.00 | 0.00 | 84 | 987.3 |
| 20260504040905 | 4 | 253 | 0.0 | 0.0 | 0.00 | 0.00 | 0.00 | 84 | 987.3 |
| 20260504040405 | 4 | 225 | 0.0 | 0.0 | 0.00 | 0.00 | 0.00 | 83 | 987.3 |
| 20260504035904 | 4 | 189 | 0.0 | 0.0 | 0.00 | 0.00 | 0.00 | 83 | 987.3 |
| 20260504035404 | 4 | 265 | 0.0 | 0.0 | 0.00 | 0.00 | 0.00 | 84 | 987.3 |
| 20260504034404 | 5 | 274 | 1.6 | 1.6 | 0.00 | 0.00 | 0.00 | 84 | 987.3 |
| 20260504033904 | 5 | 225 | 1.6 | 1.6 | 0.00 | 0.00 | 0.00 | 82 | 987.3 |
| 20260504033404 | 5 | 221 | 0.0 | 0.0 | 0.00 | 0.00 | 0.00 | 81 | 987.3 |
| 20260504032904 | 5 | 263 | 0.0 | 1.6 | 0.00 | 0.00 | 0.00 | 80 | 987.3 |
| 20260504032404 | 5 | 202 | 0.0 | 0.0 | 0.00 | 0.00 | 0.00 | 80 | 987.4 |
| 20260504031905 | 5 | 192 | 1.6 | 1.6 | 0.00 | 0.00 | 0.00 | 81 | 987.4 |
| 20260504031405 | 5 | 270 | 0.0 | 0.0 | 0.00 | 0.00 | 0.00 | 80 | 987.4 |
| 20260504030905 | 5 | 158 | 0.0 | 3.2 | 0.00 | 0.00 | 0.00 | 79 | 987.4 |
| 20260504030405 | 5 | 258 | 0.0 | 3.2 | 0.00 | 0.00 | 0.00 | 79 | 987.5 |
| 20260504025905 | 5 | 282 | 1.6 | 3.2 | 0.00 | 0.00 | 0.00 | 78 | 987.5 |
| 20260504025405 | 5 | 270 | 1.6 | 1.6 | 0.00 | 0.00 | 0.00 | 77 | 987.5 |
| 20260504024905 | 5 | 270 | 1.6 | 1.6 | 0.00 | 0.00 | 0.00 | 77 | 987.5 |
| 20260504024404 | 6 | 270 | 0.0 | 0.0 | 0.00 | 0.00 | 0.00 | 76 | 987.5 |
| 20260504023405 | 6 | 257 | 0.0 | 0.0 | 0.00 | 0.00 | 0.00 | 76 | 987.5 |
| 20260504022404 | 6 | 213 | 0.0 | 0.0 | 0.00 | 0.00 | 0.00 | 75 | 987.6 |
| 20260504021904 | 6 | 255 | 0.0 | 1.6 | 0.00 | 0.00 | 0.00 | 75 | 987.6 |
| 20260504020904 | 6 | 270 | 0.0 | 0.0 | 0.00 | 0.00 | 0.00 | 72 | 987.7 |
| 20260504020405 | 6 | 255 | 0.0 | 0.0 | 0.00 | 0.00 | 0.00 | 70 | 987.6 |
| 20260504015904 | 6 | 246 | 0.0 | 0.0 | 0.00 | 0.00 | 0.00 | 70 | 987.6 |
| 20260504015405 | 7 | 213 | 0.0 | 0.0 | 0.00 | 0.00 | 0.00 | 70 | 987.6 |
| 20260504014904 | 7 | 217 | 0.0 | 0.0 | 0.00 | 0.00 | 0.00 | 69 | 987.5 |
| 20260504014404 | 7 | 180 | 0.0 | 0.0 | 0.00 | 0.00 | 0.00 | 68 | 987.5 |
| 20260504013904 | 7 | 191 | 0.0 | 0.0 | 0.00 | 0.00 | 0.00 | 67 | 987.4 |
| 20260504013405 | 7 | 225 | 0.0 | 0.0 | 0.00 | 0.00 | 0.00 | 68 | 987.4 |
| 20260504012904 | 7 | 202 | 0.0 | 3.2 | 0.00 | 0.00 | 0.00 | 67 | 987.4 |
| 20260504012404 | 8 | 260 | 0.0 | 1.6 | 0.00 | 0.00 | 0.00 | 66 | 987.3 |
| 20260504011904 | 8 | 225 | 0.0 | 0.0 | 0.00 | 0.00 | 0.00 | 65 | 987.3 |
| 20260504011404 | 8 | 177 | 0.0 | 0.0 | 0.00 | 0.00 | 0.00 | 65 | 987.4 |
| 20260504010904 | 8 | 204 | 0.0 | 1.6 | 0.00 | 0.00 | 0.00 | 64 | 987.4 |
| 20260504005404 | 9 | 307 | 3.2 | 3.2 | 0.00 | 0.00 | 0.00 | 63 | 987.4 |
| 20260504004904 | 10 | 228 | 0.0 | 0.0 | 0.00 | 0.00 | 0.00 | 60 | 987.2 |
| 20260504004404 | 10 | 198 | 0.0 | 3.2 | 0.00 | 0.00 | 0.00 | 60 | 987.2 |
| 20260504003904 | 10 | 312 | 1.6 | 3.2 | 0.00 | 0.00 | 0.00 | 57 | 987.1 |
| 20260504002904 | 11 | 180 | 0.0 | 1.6 | 0.00 | 0.00 | 0.00 | 55 | 987.1 |
| 20260504002403 | 11 | 270 | 1.6 | 1.6 | 0.00 | 0.00 | 0.00 | 51 | 987.2 |
| 20260504001904 | 11 | 196 | 1.6 | 3.2 | 0.00 | 0.00 | 0.00 | 52 | 987.2 |
| 20260504001404 | 11 | 315 | 3.2 | 3.2 | 0.00 | 0.00 | 0.00 | 47 | 987.2 |
| 20260504000904 | 12 | 19 | 3.2 | 3.2 | 0.00 | 0.00 | 0.00 | 48 | 987.2 |
| 20260504000404 | 12 | 308 | 3.2 | 3.2 | 0.00 | 0.00 | 0.00 | 49 | 987.2 |
| 20260503235904 | 12 | 289 | 1.6 | 3.2 | 0.00 | 0.00 | 0.00 | 48 | 987.2 |
| 20260503235404 | 12 | 129 | 3.2 | 4.8 | 0.00 | 0.00 | 0.00 | 45 | 987.2 |
| 20260503234907 | 13 | 301 | 3.2 | 4.8 | 0.00 | 0.00 | 0.00 | 44 | 987.2 |
| 20260503233908 | 13 | 202 | 3.2 | 4.8 | 0.00 | 0.00 | 0.00 | 41 | 987.3 |
| 20260503233408 | 13 | 224 | 4.8 | 8.0 | 0.00 | 0.00 | 0.00 | 41 | 987.3 |
| 20260503232907 | 14 | 226 | 4.8 | 8.0 | 0.00 | 0.00 | 0.00 | 40 | 987.3 |
| 20260503232407 | 14 | 202 | 3.2 | 9.7 | 0.00 | 0.00 | 0.00 | 40 | 987.3 |
| 20260503231907 | 14 | 246 | 1.6 | 8.0 | 0.00 | 0.00 | 0.00 | 41 | 987.3 |
| 20260503231408 | 14 | 112 | 4.8 | 12.9 | 0.00 | 0.00 | 0.00 | 39 | 987.4 |
| 20260503230908 | 15 | 221 | 6.4 | 11.3 | 0.00 | 0.00 | 0.00 | 38 | 987.4 |
| 20260503230407 | 15 | 171 | 9.7 | 12.9 | 0.00 | 0.00 | 0.00 | 37 | 987.4 |
| 20260503225907 | 15 | 234 | 6.4 | 9.7 | 0.00 | 0.00 | 0.00 | 37 | 987.4 |
| 20260503225408 | 15 | 261 | 4.8 | 11.3 | 0.00 | 0.00 | 0.00 | 37 | 987.4 |
| 20260503224907 | 15 | 197 | 8.0 | 9.7 | 0.00 | 0.00 | 0.00 | 36 | 987.4 |
| 20260503224408 | 15 | 224 | 8.0 | 14.5 | 0.00 | 0.00 | 0.00 | 36 | 987.4 |
| 20260503223408 | 15 | 209 | 4.8 | 9.7 | 0.00 | 0.00 | 0.00 | 37 | 987.6 |
| 20260503222908 | 15 | 250 | 6.4 | 11.3 | 0.00 | 0.00 | 0.00 | 37 | 987.6 |
| 20260503222408 | 15 | 175 | 6.4 | 11.3 | 0.00 | 0.00 | 0.00 | 36 | 987.5 |
| 20260503221907 | 15 | 253 | 9.7 | 14.5 | 0.00 | 0.00 | 0.00 | 35 | 987.5 |
| 20260503221408 | 16 | 227 | 9.7 | 20.9 | 0.00 | 0.00 | 0.00 | 35 | 987.5 |
| 20260503220907 | 16 | 230 | 9.7 | 19.3 | 0.00 | 0.00 | 0.00 | 35 | 987.5 |
| 20260503220407 | 16 | 259 | 11.3 | 16.1 | 0.00 | 0.00 | 0.00 | 34 | 987.4 |
| 20260503215907 | 16 | 240 | 14.5 | 20.9 | 0.00 | 0.00 | 0.00 | 34 | 987.4 |
| 20260503214907 | 16 | 212 | 6.4 | 11.3 | 0.00 | 0.00 | 0.00 | 35 | 987.4 |
| 20260503213907 | 16 | 165 | 8.0 | 14.5 | 0.00 | 0.00 | 0.00 | 35 | 987.2 |
| 20260503212907 | 15 | 149 | 8.0 | 11.3 | 0.00 | 0.00 | 0.00 | 37 | 987.2 |
| 20260503212408 | 16 | 228 | 8.0 | 16.1 | 0.00 | 0.00 | 0.00 | 35 | 987.4 |
| 20260503211907 | 15 | 167 | 14.5 | 16.1 | 0.00 | 0.00 | 0.00 | 36 | 987.4 |
| 20260503211407 | 15 | 256 | 9.7 | 24.1 | 0.00 | 0.00 | 0.00 | 36 | 987.5 |
| 20260503210907 | 16 | 175 | 8.0 | 11.3 | 0.00 | 0.00 | 0.00 | 35 | 987.5 |
| 20260503205407 | 15 | 171 | 6.4 | 19.3 | 0.00 | 0.00 | 0.00 | 37 | 987.5 |
| 20260503204907 | 17 | 292 | 4.8 | 19.3 | 0.00 | 0.00 | 0.00 | 34 | 987.7 |
| 20260503204408 | 16 | 248 | 9.7 | 14.5 | 0.00 | 0.00 | 0.00 | 36 | 987.7 |
| 20260503203908 | 16 | 112 | 8.0 | 11.3 | 0.00 | 0.00 | 0.00 | 35 | 987.9 |
| 20260503203407 | 15 | 165 | 8.0 | 11.3 | 0.00 | 0.00 | 0.00 | 35 | 987.9 |
| 20260503201907 | 16 | 106 | 8.0 | 16.1 | 0.00 | 0.00 | 0.00 | 37 | 988.0 |
| 20260503201408 | 16 | 143 | 8.0 | 16.1 | 0.00 | 0.00 | 0.00 | 35 | 988.0 |
| 20260503200907 | 15 | 141 | 9.7 | 12.9 | 0.00 | 0.00 | 0.00 | 36 | 988.0 |
| 20260503195907 | 16 | 159 | 9.7 | 12.9 | 0.00 | 0.00 | 0.00 | 35 | 988.2 |
| 20260503195407 | 16 | 250 | 4.8 | 12.9 | 0.00 | 0.00 | 0.00 | 36 | 988.2 |
| 20260503194907 | 16 | 233 | 11.3 | 14.5 | 0.00 | 0.00 | 0.00 | 34 | 988.4 |
| 20260503194406 | 16 | 145 | 8.0 | 14.5 | 0.00 | 0.00 | 0.00 | 35 | 988.4 |
| 20260503193407 | 16 | 215 | 11.3 | 19.3 | 0.00 | 0.00 | 0.00 | 35 | 988.4 |
| 20260503192907 | 16 | 139 | 14.5 | 20.9 | 0.00 | 0.00 | 0.00 | 35 | 988.4 |
| 20260503192407 | 16 | 180 | 12.9 | 24.1 | 0.00 | 0.00 | 0.00 | 35 | 988.8 |
| 20260503191907 | 16 | 208 | 9.7 | 14.5 | 0.00 | 0.00 | 0.00 | 36 | 988.8 |
| 20260503191407 | 15 | 269 | 9.7 | 11.3 | 0.00 | 0.00 | 0.00 | 37 | 988.9 |
| 20260503190906 | 15 | 218 | 4.8 | 12.9 | 0.00 | 0.00 | 0.00 | 37 | 988.9 |
| 20260503185906 | 15 | 218 | 11.3 | 16.1 | 0.00 | 0.00 | 0.00 | 36 | 989.0 |
| 20260503184407 | 16 | 158 | 9.7 | 14.5 | 0.00 | 0.00 | 0.00 | 36 | 989.1 |
| 20260503183906 | 16 | 216 | 14.5 | 16.1 | 0.00 | 0.00 | 0.00 | 35 | 989.3 |
| 20260503183407 | 16 | 222 | 9.7 | 16.1 | 0.00 | 0.00 | 0.00 | 37 | 989.3 |
| 20260503182407 | 15 | 177 | 11.3 | 16.1 | 0.00 | 0.00 | 0.00 | 36 | 989.4 |
| 20260503181907 | 15 | 194 | 11.3 | 27.4 | 0.00 | 0.00 | 0.00 | 36 | 989.4 |
| 20260503181406 | 16 | 255 | 8.0 | 14.5 | 0.00 | 0.00 | 0.00 | 34 | 989.7 |
| 20260503180907 | 16 | 222 | 6.4 | 14.5 | 0.00 | 0.00 | 0.00 | 36 | 989.7 |
| 20260503180406 | 16 | 334 | 14.5 | 22.5 | 0.00 | 0.00 | 0.00 | 35 | 989.7 |
| 20260503175406 | 16 | 131 | 9.7 | 12.9 | 0.00 | 0.00 | 0.00 | 35 | 989.7 |
| 20260503174907 | 15 | 223 | 12.9 | 29.0 | 0.00 | 0.00 | 0.00 | 36 | 989.9 |
| 20260503174407 | 15 | 179 | 9.7 | 14.5 | 0.00 | 0.00 | 0.00 | 38 | 989.9 |
| 20260503173907 | 14 | 205 | 11.3 | 12.9 | 0.00 | 0.00 | 0.00 | 38 | 989.9 |
| 20260503173407 | 15 | 256 | 9.7 | 14.5 | 0.00 | 0.00 | 0.00 | 35 | 989.9 |
| 20260503172907 | 15 | 212 | 8.0 | 16.1 | 0.00 | 0.00 | 0.00 | 36 | 989.9 |
| 20260503172406 | 14 | 202 | 11.3 | 11.3 | 0.00 | 0.00 | 0.00 | 39 | 990.0 |
| 20260503171907 | 14 | 190 | 9.7 | 16.1 | 0.00 | 0.00 | 0.00 | 37 | 990.0 |
| 20260503171407 | 14 | 178 | 6.4 | 14.5 | 0.00 | 0.00 | 0.00 | 37 | 990.1 |
| 20260503170906 | 14 | 161 | 6.4 | 9.7 | 0.00 | 0.00 | 0.00 | 38 | 990.1 |
| 20260503170406 | 14 | 180 | 8.0 | 9.7 | 0.00 | 0.00 | 0.00 | 36 | 990.2 |
| 20260503150906 | 12 | 152 | 8.0 | 12.9 | 0.00 | 0.00 | 0.00 | 41 | 991.1 |
| 20260503150406 | 11 | 292 | 11.3 | 16.1 | 0.00 | 0.00 | 0.00 | 40 | 991.1 |
| 20260503131406 | 8 | 239 | 8.0 | 11.3 | 0.00 | 0.00 | 0.00 | 61 | 991.6 |
| 20260503130907 | 7 | 225 | 9.7 | 14.5 | 0.00 | 0.00 | 0.00 | 61 | 991.6 |
| 20260503090406 | 0 | 266 | 0.0 | 0.0 | 0.00 | 0.00 | 0.00 | 93 | 990.1 |
| 20260503081405 | 1 | 262 | 0.0 | 0.0 | 0.00 | 0.00 | 0.00 | 93 | 990.1 |
| 20260503080905 | 1 | 194 | 0.0 | 0.0 | 0.00 | 0.00 | 0.00 | 93 | 990.1 |
| 20260503080405 | 1 | 202 | 0.0 | 0.0 | 0.00 | 0.00 | 0.00 | 93 | 990.0 |
| 20260503072905 | 1 | 202 | 0.0 | 0.0 | 0.00 | 0.00 | 0.00 | 93 | 989.9 |
| 20260503072405 | 1 | 225 | 0.0 | 1.6 | 0.00 | 0.00 | 0.00 | 93 | 989.9 |
| 20260503071905 | 1 | 270 | 1.6 | 1.6 | 0.00 | 0.00 | 0.00 | 93 | 989.9 |
| 20260503071405 | 1 | 180 | 0.0 | 0.0 | 0.00 | 0.00 | 0.00 | 93 | 989.8 |
| 20260503070905 | 1 | 173 | 0.0 | 0.0 | 0.00 | 0.00 | 0.00 | 93 | 989.8 |
| 20260503070405 | 1 | 202 | 0.0 | 0.0 | 0.00 | 0.00 | 0.00 | 93 | 989.7 |
| 20260503054904 | 0 | 270 | 0.0 | 0.0 | 0.00 | 0.00 | 0.00 | 91 | 989.9 |
| 20260503054404 | 0 | 258 | 0.0 | 1.6 | 0.00 | 0.00 | 0.00 | 90 | 989.9 |
| 20260503053404 | 0 | 215 | 0.0 | 1.6 | 0.00 | 0.00 | 0.00 | 90 | 989.9 |